Weather History for Sanford, ME

Change the Weather History Date:

Thursday, November 8, 2012

  Actual Average Record
Temperature  
Mean Temperature 34 °F -  
Max Temperature 39 °F 47 °F 68 °F (2011)
Min Temperature 30 °F 28 °F 23 °F (1999)
Degree Days  
Heating Degree Days 30    
Moisture  
Dew Point 32 °F    
Average Humidity 87    
Maximum Humidity 100    
Minimum Humidity 70    
Precipitation  
Precipitation 0.52 in - - ()
Sea Level Pressure  
Sea Level Pressure 29.73 in    
Wind  
Wind Speed 20 mph (North)    
Max Wind Speed 26 mph    
Max Gust Speed 34 mph    
Visibility 6 miles    
Events      
Averages and records for this station are not official NWS values.
T = Trace of Precipitation, MM = Missing Value Source: NWS Daily Summary

Daily Weather History Graph

Daily Weather History Graph

Search for Another Location

Airport:

Trip Planner

Search our weather history database for the weather conditions in past years. The results will help you decide how hot, cold, wet, or windy it might be!

Date:

Astronomy

Nov. 08, 2012 Rise Set
Actual Time 6:27 AM EST 4:24 PM EST
Civil Twilight 5:57 AM EST 4:55 PM EST
Nautical Twilight 5:23 AM EST 5:29 PM EST
Astronomical Twilight 4:49 AM EST 6:02 PM EST
Moon 12:09 AM EST (11/8) 1:13 PM EST (11/8)
Length of Visible Light 10h 57m
Length of Day
9h 57m
Waning Crescent, 33% of the Moon is Illuminated
Nov 8
Waning Crescent
Nov 13
New
Nov 20
First Quarter
Nov 28
Full
Dec 6
Last Quarter

Hourly Weather History & Observations

Time (EST) Temp. Windchill Dew Point Humidity Pressure Visibility Wind Dir Wind Speed Gust Speed Precip Events Conditions
12:15 AM 30.2 °F 16.8 °F 30.2 °F 100% 29.83 in 1.8 mi North 23.0 mph 27.6 mph N/A   Overcast
12:35 AM 32.0 °F 19.2 °F 32.0 °F 100% 29.82 in 1.5 mi North 23.0 mph 29.9 mph N/A   Overcast
12:55 AM 32.0 °F 20.5 °F 24.8 °F 75% 29.82 in 2.0 mi North 18.4 mph 27.6 mph N/A   Overcast
1:15 AM 32.0 °F 19.5 °F 26.6 °F 80% 29.81 in 1.8 mi North 21.9 mph 32.2 mph N/A   Overcast
1:35 AM 32.0 °F 19.8 °F 32.0 °F 100% 29.81 in 1.2 mi North 20.7 mph 31.1 mph N/A   Overcast
2:15 AM 32.0 °F 20.5 °F 26.6 °F 80% 29.80 in 1.2 mi NNE 18.4 mph 31.1 mph N/A   Overcast
2:35 AM 32.0 °F 20.1 °F 32.0 °F 100% 29.79 in 1.5 mi North 19.6 mph 31.1 mph N/A   Overcast
2:55 AM 32.0 °F 18.4 °F 26.6 °F 80% 29.77 in 1.5 mi North 26.5 mph 34.5 mph N/A   Overcast
3:15 AM 32.0 °F 19.2 °F 24.8 °F 75% 29.77 in 1.5 mi North 23.0 mph 29.9 mph N/A   Overcast
3:35 AM 32.0 °F 18.9 °F 32.0 °F 100% 29.77 in 1.8 mi North 24.2 mph 29.9 mph N/A   Overcast
3:55 AM 33.8 °F 21.0 °F 24.8 °F 70% 29.76 in 3.0 mi North 25.3 mph 33.4 mph N/A   Overcast
4:15 AM 33.8 °F 21.0 °F 28.4 °F 81% 29.76 in 4.0 mi NNE 25.3 mph 33.4 mph N/A   Overcast
4:35 AM 33.8 °F 22.2 °F 33.8 °F 100% 29.76 in 8.0 mi NNE 20.7 mph 31.1 mph N/A   Overcast
4:55 AM 33.8 °F 21.0 °F 26.6 °F 75% 29.75 in 5.0 mi NNE 25.3 mph 32.2 mph N/A   Overcast
5:15 AM 33.8 °F 22.8 °F 28.4 °F 81% 29.75 in 3.0 mi NNE 18.4 mph 27.6 mph N/A   Overcast
5:35 AM 33.8 °F 22.2 °F 33.8 °F 100% 29.74 in 2.5 mi NNE 20.7 mph 29.9 mph N/A   Overcast
5:55 AM 33.8 °F 22.5 °F 26.6 °F 75% 29.74 in 2.5 mi North 19.6 mph 28.8 mph N/A   Overcast
6:15 AM 33.8 °F 22.5 °F 28.4 °F 81% 29.74 in 4.0 mi NNE 19.6 mph 24.2 mph 0.01 in   Overcast
6:35 AM 33.8 °F 22.5 °F 33.8 °F 100% 29.73 in 3.0 mi NNE 19.6 mph 29.9 mph 0.03 in   Overcast
6:55 AM 33.8 °F 22.2 °F 28.4 °F 81% 29.73 in 6.0 mi North 20.7 mph 27.6 mph 0.05 in   Overcast
7:15 AM 33.8 °F 22.8 °F 28.4 °F 81% 29.73 in 10.0 mi NNE 18.4 mph - 0.03 in   Overcast
7:55 AM 33.8 °F 21.6 °F 33.8 °F 100% 29.72 in 4.0 mi North 23.0 mph 29.9 mph 0.08 in   Overcast
8:15 AM 33.8 °F 22.5 °F 28.4 °F 81% 29.73 in 10.0 mi North 19.6 mph 31.1 mph 0.02 in   Overcast
8:35 AM 33.8 °F 22.2 °F 32.0 °F 93% 29.73 in 3.0 mi North 20.7 mph 29.9 mph 0.04 in   Overcast
8:55 AM 35.6 °F 25.2 °F 33.8 °F 93% 29.73 in 10.0 mi North 18.4 mph 28.8 mph 0.05 in   Overcast
9:15 AM 35.6 °F 24.8 °F 28.4 °F 75% 29.74 in 4.0 mi North 19.6 mph 27.6 mph 0.01 in   Overcast
9:35 AM 35.6 °F 25.2 °F 30.2 °F 81% 29.72 in 2.0 mi North 18.4 mph 28.8 mph 0.05 in   Overcast
9:55 AM 35.6 °F 24.5 °F 35.6 °F 100% 29.72 in 5.0 mi North 20.7 mph 31.1 mph 0.09 in   Overcast
10:15 AM 35.6 °F 24.5 °F 32.0 °F 87% 29.71 in 10.0 mi North 20.7 mph 32.2 mph N/A   Overcast
10:35 AM 35.6 °F 24.8 °F 30.2 °F 81% 29.71 in 3.0 mi North 19.6 mph 31.1 mph N/A   Overcast
10:55 AM 35.6 °F 23.7 °F 32.0 °F 87% 29.70 in 7.0 mi North 24.2 mph 33.4 mph N/A   Overcast
11:35 AM 35.6 °F 24.2 °F 30.2 °F 81% 29.69 in 4.0 mi North 21.9 mph 27.6 mph N/A   Overcast
11:55 AM 35.6 °F 24.2 °F 30.2 °F 81% 29.68 in 3.0 mi North 21.9 mph 28.8 mph N/A   Overcast
12:15 PM 35.6 °F 24.8 °F 33.8 °F 93% 29.68 in 2.5 mi North 19.6 mph 31.1 mph N/A   Overcast
12:35 PM 35.6 °F 24.2 °F 35.6 °F 100% 29.68 in 5.0 mi North 21.9 mph 33.4 mph N/A   Overcast
12:55 PM 35.6 °F 24.0 °F 33.8 °F 93% 29.67 in 5.0 mi North 23.0 mph 31.1 mph N/A   Overcast
1:15 PM 35.6 °F 24.8 °F 30.2 °F 81% 29.67 in 5.0 mi North 19.6 mph 29.9 mph N/A   Overcast
1:35 PM 37.4 °F 26.6 °F 32.0 °F 81% 29.67 in 3.0 mi North 21.9 mph 32.2 mph N/A   Overcast
1:55 PM 37.4 °F 26.9 °F 33.8 °F 87% 29.67 in 3.0 mi North 20.7 mph 28.8 mph 0.03 in   Overcast
2:15 PM 37.4 °F 26.9 °F 35.6 °F 93% 29.67 in 7.0 mi North 20.7 mph 29.9 mph 0.02 in   Overcast
2:35 PM 37.4 °F 26.6 °F 33.8 °F 87% 29.67 in 9.0 mi North 21.9 mph 28.8 mph 0.04 in   Overcast
2:55 PM 37.4 °F 27.5 °F 32.0 °F 81% 29.68 in 8.0 mi North 18.4 mph 32.2 mph 0.04 in   Overcast
3:15 PM 37.4 °F 26.9 °F 33.8 °F 87% 29.68 in 10.0 mi North 20.7 mph 26.5 mph 0.01 in   Overcast
3:35 PM 37.4 °F 26.4 °F 33.8 °F 87% 29.69 in 9.0 mi North 23.0 mph 28.8 mph 0.03 in   Overcast
3:55 PM 37.4 °F 27.5 °F 35.6 °F 93% 29.69 in 5.0 mi North 18.4 mph 27.6 mph 0.04 in   Overcast
4:15 PM 37.4 °F 27.8 °F 35.6 °F 93% 29.69 in 4.0 mi North 17.3 mph 25.3 mph N/A   Overcast
4:35 PM 37.4 °F 27.2 °F 33.8 °F 87% 29.70 in 3.0 mi North 19.6 mph 26.5 mph 0.01 in   Overcast
4:55 PM 37.4 °F 27.2 °F 33.8 °F 87% 29.70 in 8.0 mi North 19.6 mph 24.2 mph 0.04 in   Overcast
5:15 PM 37.4 °F 27.2 °F 33.8 °F 87% 29.71 in 10.0 mi North 19.6 mph 24.2 mph 0.01 in   Overcast
5:35 PM 37.4 °F 28.5 °F 33.8 °F 87% 29.71 in 10.0 mi North 15.0 mph - 0.02 in   Overcast
5:55 PM 37.4 °F 27.8 °F 35.6 °F 93% 29.72 in 10.0 mi North 17.3 mph 24.2 mph 0.03 in   Overcast
6:15 PM 37.4 °F 27.8 °F 35.6 °F 93% 29.72 in 8.0 mi North 17.3 mph 25.3 mph 0.01 in   Overcast
6:35 PM 37.4 °F 28.2 °F 35.6 °F 93% 29.72 in 10.0 mi North 16.1 mph 21.9 mph 0.02 in   Overcast
6:55 PM 37.4 °F 28.2 °F 33.8 °F 87% 29.72 in 10.0 mi North 16.1 mph 24.2 mph 0.02 in   Overcast
7:15 PM 37.4 °F 28.9 °F 32.0 °F 81% 29.72 in 10.0 mi North 13.8 mph - N/A   Overcast
7:35 PM 37.4 °F 27.8 °F 33.8 °F 87% 29.72 in 10.0 mi North 17.3 mph 25.3 mph N/A   Overcast
7:55 PM 37.4 °F 28.5 °F 35.6 °F 93% 29.72 in 10.0 mi North 15.0 mph 23.0 mph N/A   Overcast
8:35 PM 37.4 °F 28.5 °F 33.8 °F 87% 29.72 in 10.0 mi North 15.0 mph 20.7 mph 0.01 in   Overcast
8:55 PM 37.4 °F 28.9 °F 35.6 °F 93% 29.72 in 10.0 mi North 13.8 mph - 0.01 in   Overcast
9:15 PM 37.4 °F 29.8 °F 35.6 °F 93% 29.72 in 10.0 mi NNW 11.5 mph 18.4 mph 0.02 in   Overcast
9:35 PM 37.4 °F 28.9 °F 35.6 °F 93% 29.73 in 10.0 mi NNW 13.8 mph 19.6 mph 0.03 in   Overcast
9:55 PM 37.4 °F 29.8 °F 33.8 °F 87% 29.73 in 10.0 mi NNW 11.5 mph 20.7 mph 0.04 in   Overcast
10:15 PM 37.4 °F 29.8 °F 32.0 °F 81% 29.73 in 10.0 mi NNW 11.5 mph - N/A   Overcast
10:35 PM 37.4 °F 29.8 °F 32.0 °F 81% 29.73 in 10.0 mi NNW 11.5 mph - N/A   Overcast
10:55 PM 37.4 °F 29.8 °F 33.8 °F 87% 29.73 in 10.0 mi North 11.5 mph - N/A   Overcast
11:15 PM 37.4 °F 29.8 °F 33.8 °F 87% 29.73 in 10.0 mi NNW 11.5 mph - N/A   Overcast
11:35 PM 39.2 °F 33.6 °F 33.8 °F 81% 29.73 in 10.0 mi NNW 8.1 mph - N/A   Overcast
11:55 PM 39.2 °F 33.0 °F 32.0 °F 75% 29.73 in 10.0 mi NNW 9.2 mph - N/A   Overcast